Location: Newark
(7.0858°N, 171.3717°E)
Time: 08:29:24
(UTC+00:00)

Courier 1B Rocket - Pass Details

Date: 04 December 2020
Orbit: 920 x 1202 km, 28.2° (Epoch: 17 January)

Event Time Altitude Azimuth Distance (km) Brightness Sun altitude
Rises 01:25:40 0° 271° (W) 3,885 8.3 57.1°
Reaches altitude 10° 01:29:21 10° 255° (WSW) 2,872 8.0 56.6°
Maximum altitude 01:34:07 19° 211° (SSW) 2,192 7.9 56.1°
Drops below altitude 10° 01:38:41 10° 167° (SSE) 2,733 7.9 55.5°
Sets 01:42:06 0° 150° (SSE) 3,635 8.2 55.1°
